Linden, NJ

6:58 AM EDT on March 28, 2017 (GMT -0400)
Linden

Weather History for KLDJ - June, 2013

Change the Weather History Date:

Sunday, June 23, 2013

  Actual Average (KEWR) Record (KEWR)
Temperature  
Mean Temperature 79 °F -  
Max Temperature 90 °F 82 °F 97 °F (1965)
Min Temperature 68 °F 64 °F 51 °F (1992)
Cooling Degree Days 14    
Growing Degree Days 29 (Base 50)    
Moisture  
Dew Point 65 °F    
Average Humidity 64    
Maximum Humidity 90    
Minimum Humidity 43    
Precipitation  
Precipitation 0.01 in - - ()
Sea Level Pressure  
Sea Level Pressure 30.15 in    
Wind  
Wind Speed 2 mph (SW)    
Max Wind Speed 9 mph    
Max Gust Speed 18 mph    
Visibility 10 miles    
Events Rain    
Averages and records for this station are not official NWS values.
T = Trace of Precipitation, MM = Missing Value Source: NWS Daily Summary

Daily Weather History Graph

Daily Weather History Graph

Search for Another Location

Airport or City:

Trip Planner

Search our weather history database for the weather conditions in past years. The results will help you decide how hot, cold, wet, or windy it might be!

Date:

Astronomy

Jun. 23, 2013 Rise Set
Actual Time 5:26 AM EDT 8:31 PM EDT
Civil Twilight 4:53 AM EDT 9:05 PM EDT
Nautical Twilight 4:10 AM EDT 9:47 PM EDT
Astronomical Twilight 3:20 AM EDT 10:37 PM EDT
Moon 8:41 PM EDT (6/23) 5:41 AM EDT (6/23)
Length of Visible Light 16h 11m
Length of Day
15h 04m
Full, 100% of the Moon is Illuminated
Jun 23
Full
Jun 30
Last Quarter
Jul 8
New
Jul 15
First Quarter
Jul 22
Full

Hourly Weather History & Observations

Time (EDT) Temp. Heat Index Dew Point Humidity Pressure Visibility Wind Dir Wind Speed Gust Speed Precip Events Conditions
12:15 AM 72.5 °F - 59.4 °F 63% 30.19 in 10.0 mi Calm Calm - N/A   Clear
12:35 AM 71.8 °F - 59.7 °F 66% 30.19 in 10.0 mi Calm Calm - N/A   Clear
12:55 AM 71.6 °F - 59.9 °F 66% 30.19 in 10.0 mi Calm Calm - N/A   Clear
1:15 AM 71.6 °F - 60.4 °F 68% 30.19 in 10.0 mi Calm Calm - N/A   Clear
1:35 AM 71.8 °F - 60.6 °F 68% 30.19 in 10.0 mi Calm Calm - N/A   Clear
1:55 AM 71.6 °F - 60.4 °F 68% 30.19 in 10.0 mi Calm Calm - N/A   Clear
2:15 AM 71.6 °F - 60.3 °F 67% 30.19 in 10.0 mi Calm Calm - N/A   Clear
2:35 AM 71.2 °F - 60.4 °F 69% 30.18 in 10.0 mi Calm Calm - N/A   Clear
2:55 AM 70.3 °F - 60.3 °F 70% 30.18 in 10.0 mi Calm Calm - N/A   Clear
3:15 AM 69.8 °F - 60.3 °F 72% 30.17 in 10.0 mi Calm Calm - N/A   Clear
3:35 AM 69.6 °F - 60.3 °F 72% 30.17 in 10.0 mi Calm Calm - N/A   Clear
3:55 AM 69.3 °F - 60.1 °F 72% 30.16 in 10.0 mi Calm Calm - N/A   Clear
4:15 AM 68.9 °F - 60.1 °F 73% 30.16 in 10.0 mi Calm Calm - N/A   Clear
4:35 AM 68.7 °F - 60.3 °F 74% 30.17 in 10.0 mi Calm Calm - N/A   Clear
4:55 AM 68.9 °F - 60.3 °F 74% 30.17 in 10.0 mi Calm Calm - N/A   Clear
5:15 AM 68.4 °F - 60.3 °F 75% 30.17 in 10.0 mi Calm Calm - N/A   Clear
5:35 AM 68.5 °F - 60.3 °F 75% 30.17 in 10.0 mi Calm Calm - N/A   Clear
5:55 AM 68.2 °F - 60.6 °F 77% 30.17 in 10.0 mi Calm Calm - N/A   Clear
6:15 AM 68.9 °F - 60.8 °F 75% 30.18 in 10.0 mi West 3.5 mph - N/A   Clear
6:35 AM 69.1 °F - 61.0 °F 75% 30.19 in 10.0 mi Calm Calm - N/A   Clear
6:55 AM 69.8 °F - 61.3 °F 74% 30.18 in 10.0 mi Calm Calm - N/A   Clear
7:15 AM 70.7 °F - 61.7 °F 73% 30.19 in 10.0 mi West 4.6 mph - N/A   Clear
7:35 AM 71.6 °F - 62.1 °F 72% 30.20 in 10.0 mi WSW 5.8 mph - N/A   Clear
7:55 AM 72.9 °F - 62.8 °F 71% 30.20 in 10.0 mi WSW 4.6 mph - N/A   Clear
8:15 AM 74.5 °F - 64.0 °F 70% 30.20 in 10.0 mi WSW 6.9 mph - N/A   Clear
8:35 AM 75.2 °F - 64.4 °F 69% 30.20 in 10.0 mi WSW 4.6 mph - N/A   Clear
8:55 AM 76.5 °F - 65.3 °F 68% 30.20 in 10.0 mi WSW 4.6 mph - N/A   Clear
9:15 AM 77.9 °F - 66.2 °F 67% 30.19 in 10.0 mi West 3.5 mph - N/A   Clear
9:35 AM 79.0 °F - 66.2 °F 65% 30.19 in 10.0 mi WSW 4.6 mph - N/A   Clear
9:55 AM 80.1 °F 82.1 °F 66.0 °F 62% 30.18 in 10.0 mi WSW 5.8 mph - N/A   Clear
10:15 AM 81.0 °F 83.2 °F 66.2 °F 61% 30.18 in 10.0 mi WSW 5.8 mph - N/A   Clear
10:35 AM 82.8 °F 85.1 °F 66.7 °F 58% 30.18 in 10.0 mi West 8.1 mph - N/A   Clear
10:55 AM 83.3 °F 85.7 °F 66.6 °F 57% 30.17 in 10.0 mi West 6.9 mph - N/A   Clear
11:15 AM 84.6 °F 87.4 °F 67.1 °F 56% 30.17 in 10.0 mi WSW 3.5 mph - N/A   Clear
11:35 AM 85.3 °F 88.2 °F 67.6 °F 55% 30.17 in 10.0 mi South 5.8 mph - N/A   Scattered Clouds
11:55 AM 86.2 °F 88.4 °F 66.4 °F 51% 30.16 in 10.0 mi SW 4.6 mph - N/A   Scattered Clouds
12:15 PM 86.2 °F 88.4 °F 66.4 °F 51% 30.16 in 10.0 mi WSW 4.6 mph - N/A   Clear
12:35 PM 87.4 °F 89.8 °F 65.8 °F 49% 30.15 in 10.0 mi SSW 4.6 mph - N/A   Clear
12:55 PM 88.7 °F 90.8 °F 65.5 °F 46% 30.14 in 10.0 mi SW 4.6 mph - N/A   Clear
1:15 PM 89.1 °F 90.6 °F 64.2 °F 44% 30.14 in 10.0 mi SW 6.9 mph - N/A   Clear
1:35 PM 88.7 °F 90.8 °F 65.3 °F 46% 30.13 in 10.0 mi SSW 4.6 mph - N/A   Clear
1:55 PM 89.4 °F 91.2 °F 65.1 °F 44% 30.13 in 10.0 mi SSW 5.8 mph 16.1 mph N/A   Scattered Clouds
2:15 PM 89.6 °F 91.8 °F 65.7 °F 45% 30.12 in 10.0 mi SW 6.9 mph - N/A   Mostly Cloudy
2:35 PM 90.1 °F 92.3 °F 65.8 °F 44% 30.12 in 10.0 mi SSW 6.9 mph - N/A   Scattered Clouds
2:55 PM 90.9 °F 93.1 °F 65.7 °F 43% 30.11 in 10.0 mi WSW 6.9 mph - N/A   Scattered Clouds
3:15 PM 90.1 °F 92.3 °F 65.5 °F 44% 30.09 in 10.0 mi WSW 8.1 mph - N/A   Scattered Clouds
3:35 PM 89.8 °F 92.5 °F 66.2 °F 46% 30.09 in 10.0 mi SSW 5.8 mph - N/A   Scattered Clouds
3:55 PM 90.1 °F 92.7 °F 66.2 °F 45% 30.09 in 10.0 mi SSW 3.5 mph - N/A   Scattered Clouds
4:15 PM 88.7 °F 91.9 °F 67.3 °F 49% 30.09 in 10.0 mi SSW 5.8 mph - N/A   Mostly Cloudy
4:35 PM 85.8 °F 89.1 °F 68.2 °F 55% 30.09 in 10.0 mi SSW 9.2 mph 18.4 mph N/A   Mostly Cloudy
4:55 PM 85.6 °F 88.8 °F 67.8 °F 55% 30.09 in 10.0 mi SSW 3.5 mph - N/A   Overcast
5:15 PM 87.3 °F 90.2 °F 67.1 °F 51% 30.08 in 10.0 mi South 8.1 mph - N/A   Mostly Cloudy
5:35 PM 86.5 °F 90.3 °F 68.7 °F 55% 30.07 in 10.0 mi SSW 6.9 mph - N/A   Mostly Cloudy
5:55 PM 86.9 °F 91.3 °F 69.6 °F 56% 30.07 in 10.0 mi SSE 8.1 mph - N/A   Mostly Cloudy
6:15 PM 84.7 °F 89.1 °F 69.8 °F 61% 30.07 in 10.0 mi South 9.2 mph - N/A   Overcast
6:35 PM 84.6 °F 87.9 °F 68.5 °F 58% 30.07 in 10.0 mi SSW 6.9 mph - N/A   Mostly Cloudy
6:55 PM 79.0 °F - 72.0 °F 79% 30.07 in 4.0 mi WSW 9.2 mph - N/A Rain Rain
7:15 PM 78.8 °F - 71.8 °F 79% 30.06 in 7.0 mi WSW 4.6 mph - N/A Rain Rain
7:35 PM 78.8 °F - 71.8 °F 79% 30.06 in 10.0 mi West 4.6 mph - 0.01 in   Overcast
7:55 PM - - - N/A% - - North - - N/A   Unknown
8:15 PM - - - N/A% - - North - - N/A   Unknown
8:35 PM - - - N/A% - - North - - N/A   Unknown
8:55 PM - - - N/A% - - North - - N/A   Unknown
9:15 PM - - - N/A% - - North - - N/A   Unknown
9:35 PM - - - N/A% - - North - - N/A   Unknown
9:55 PM - - - N/A% - - North - - N/A   Unknown
10:15 PM - - - N/A% - - North - - N/A   Unknown
10:35 PM - - - N/A% - - North - - N/A   Unknown
10:55 PM 76.1 °F - 72.0 °F 87% 30.09 in - Calm Calm - N/A   Unknown
11:15 PM 76.1 °F - 72.3 °F 88% 30.09 in 10.0 mi West 4.6 mph - N/A   Mostly Cloudy
11:35 PM 75.6 °F - 72.3 °F 90% 30.08 in 10.0 mi Calm Calm - N/A   Scattered Clouds
11:55 PM 75.6 °F - 72.5 °F 90% 30.09 in 10.0 mi Calm Calm - N/A   Scattered Clouds